Regional Weather Roundup
Issued by NWS State College, PA

Home | Current Version | Previous Version | Graphics & Text | Print | Product List | Glossary On
Versions: 1 2 3 4 5 6 7 8 9 10 11 12 13 14 15 16 17 18 19 20 21 22 23 24 25 26 27 28 29 30 31 32 33 34 35 36 37 38 39 40 41 42 43 44 45 46 47 48 49 50
000
ASUS41 KCTP 121403
RWRCTP

REGIONAL WEATHER ROUNDUP
NATIONAL WEATHER SERVICE STATE COLLEGE PA
900 AM EST FRI FEB 12 2016

Note: "fair" indicates few or no clouds below 12,000 feet with no
significant weather and/or obstructions to visibility.

* = STATION THAT DOES NOT REPORT PRECIPITATION /E.G. RAIN...SNOW...ETC/
    THUNDER OR FOG.

PAZ002>004-007>009-013>016-020>023-029>032-121500-
WESTERN PENNSYLVANIA

CITY           SKY/WX    TMP DP  RH WIND       PRES   REMARKS
ERIE           LGT SNOW  15   8  73 S15       30.08F WCI   0
MEADVILLE      PTSUNNY   11   3  70 S9        30.05F WCI  -2
FRANKLIN*      MOSUNNY    9   0  66 S7        30.08F WCI  -3
NEW CASTLE     PTSUNNY   13   9  84 S5        30.14F WCI   5
BEAVER COUNTY  SUNNY     12   7  79 S7        30.13S WCI   2
BUTLER*        CLOUDY    10   5  79 S6        30.16S WCI   1
PITTSBURGH INT CLOUDY    12   7  80 S6        30.14S WCI   3
PITTSBURGH     CLOUDY    11   6  81 S9        30.14F WCI  -2
INDIANA*       CLOUDY    10   7  85 SW6       30.16F WCI   1
LATROBE        CLOUDY     9   5  85 SW7       30.17F WCI  -3
WASHINGTON CO* CLOUDY    10   7  85 CALM      30.15F
$$

PAZ004>006-010>012-017>019-024>028-033>037-041-042-045-046-049>053-121500-
CENTRAL PENNSYLVANIA

CITY           SKY/WX    TMP DP  RH WIND       PRES   REMARKS
BRADFORD       MOSUNNY    7   1  76 SW7G18    30.00F WCI  -5
DUBOIS         CLOUDY     7   2  80 SW6       30.06S WCI  -3
CLEARFIELD     CLOUDY     6   2  83 SW3       30.12S
JOHNSTOWN      CLOUDY     6  -1  73 SW5       30.04F WCI  -3
ALTOONA        CLOUDY    11   2  67 SW8       30.14S WCI  -1
STATE COLLEGE  CLOUDY    10   5  79 W9        30.13F WCI  -2
WILLIAMSPORT   SUNNY     13   5  70 E7        30.21F WCI   3
SELINSGROVE    SUNNY     13   7  77 CALM      30.23F
FT INDIANTOWN  CLOUDY     9   2  72 SW2       30.23F
CAPITAL CITY   SUNNY     16   2  54 W8        30.26S WCI   5
HARRISBURG     PTSUNNY   19   7  59 SW10      30.25F WCI   7
YORK           CLOUDY     6   5  95 CALM      30.25S
$$

PAZ038>040-043-044-047-048-054-055-060>062-067>071-121500-
EASTERN PENNSYLVANIA

CITY           SKY/WX    TMP DP  RH WIND       PRES   REMARKS
SCRANTON       SUNNY     13   1  59 SW8       30.16S WCI   2
MOUNT POCONO   SUNNY      8  -1  66 W10       30.06F WCI  -6
ALLENTOWN      SUNNY     16   2  54 W8        30.24F WCI   5
QUAKERTOWN*    SUNNY     16   1  53 W5        30.23F WCI   9
READING        MOSUNNY   14   2  58 CALM      30.24F
LANCASTER      FLURRIES   5   1  83 CALM      30.25F
COATESVILLE    SUNNY     14   3  62 W5        30.24F WCI   6
POTTSTOWN      MOSUNNY   16   2  54 CALM      30.27F
BLUE BELL        N/A     19   3  49 CALM      30.26F
DOYLESTOWN     SUNNY     15   1  53 SW5       30.24F WCI   8
WILLOW GROVE   NOT AVBL
NORTH PHILA    SUNNY     21   3  45 VRB3      30.30F
PHILADELPHIA   MOSUNNY   20   0  41 NW5       30.30F WCI  13
$$



USA.gov is the U.S. government's official web portal to all federal, state and local government web resources and services.